Cloud_Cover
24 24 20 20 12 8 0 0 0 0 0 12 20 24 32 20 12 12 12 20 20 20 12 12 8 12 44 36 32 24 32 20 20 24 48 24 20 32 48 32 36 56 92 92 92 88 64 20 0 0 0 0 8 8 0 12 32 44 32 12 0 8 32 64 44 24 24 8 0 0 0 0 0 0 0 0 0 0 0 0 0 0 0 0 0 0 0 0 0 0 0 12 32 48 64 76 80 80 80 76 80 88 56
20 12 8 8 8 0 0 0 0 0 0 36 48 44 24 20 24 32 36 20 20 20 8 32 24 8 24 20 20 20 12 8 8 12 20 36 32 24 44 24 20 32 92 64 76 92 88 32 8 0 0 0 8 8 0 0 8 12 8 0 0 0 0 12 20 24 32 12 8 0 0 0 0 0 0 0 0 0 0 0 0 0 0 0 0 0 0 0 0 0 0 8 20 32 48 48 68 80 68 56 76 92 88
8 8 8 8 8 8 0 0 0 0 8 44 56 48 32 20 12 12 20 12 20 20 12 32 44 36 36 44 32 20 24 12 8 8 8 44 36 20 24 44 24 8 32 44 36 24 36 32 20 0 0 0 0 0 0 0 0 0 0 0 0 0 0 0 0 8 8 8 0 0 0 0 0 0 0 0 0 0 0 0 0 0 0 0 0 0 0 0 0 0 0 0 12 32 36 44 56 68 56 64 68 80 92
12 12 20 8 8 8 0 0 0 0 12 36 48 44 36 32 20 12 32 24 20 8 8 24 36 44 44 36 36 36 36 44 20 8 12 12 32 36 0 32 24 8 0 44 44 20 0 0 8 8 0 0 0 0 0 0 0 0 0 0 0 0 0 0 0 0 0 0 0 0 0 0 0 0 0 0 0 0 0 0 0 0 0 8 8 0 0 0 0 0 0 0 0 8 24 32 36 44 48 64 68 68 64
24 24 8 12 12 8 0 0 0 0 8 12 24 36 36 36 36 36 32 24 12 0 0 12 20 24 36 24 32 44 44 48 48 36 12 20 32 36 20 24 36 36 32 36 32 20 0 0 0 0 0 0 0 0 0 0 0 0 0 0 0 0 0 0 0 0 0 0 0 0 0 0 0 0 0 0 0 0 0 0 0 0 0 0 8 8 8 8 0 0 0 0 0 8 32 32 32 32 36 44 64 76 76
44 36 24 12 12 8 0 0 0 0 0 8 12 20 32 44 44 36 32 20 8 0 0 0 8 8 12 12 12 20 20 24 32 36 44 32 32 24 12 8 12 20 36 20 8 8 12 0 0 0 0 0 0 0 0 0 0 0 0 0 0 0 0 0 0 0 0 0 0 0 0 0 0 0 0 0 0 0 0 12 12 8 0 0 0 0 0 24 32 20 0 0 0 0 20 32 32 24 32 44 68 92 80
36 24 8 8 8 8 0 0 0 0 0 0 0 8 12 36 44 36 32 12 8 0 0 0 0 0 0 0 0 0 0 0 8 20 24 24 20 12 8 0 0 0 8 0 0 8 8 0 0 0 0 0 0 0 0 0 0 0 0 0 0 0 0 0 0 0 0 0 0 0 0 0 0 8 0 8 8 8 8 24 44 44 12 8 0 0 0 0 20 32 0 0 0 0 0 8 20 24 20 24 44 68 92
8 8 8 8 8 8 0 8 8 8 0 0 0 0 8 32 32 24 24 20 12 8 0 0 0 0 0 0 0 0 0 0 0 0 0 24 32 32 20 8 0 0 0 0 0 0 0 0 0 0 0 0 0 0 0 0 0 0 0 0 0 0 0 0 0 0 0 0 0 0 12 8 8 8 0 8 12 12 8 20 24 32 36 24 8 0 0 0 0 0 0 0 0 0 0 0 8 20 48 20 32 56 68
8 8 0 8 8 8 20 24 20 8 0 0 0 0 0 8 12 20 24 20 20 20 12 8 8 12 20 12 8 8 8 8 0 8 20 32 20 8 0 0 0 0 0 0 0 0 0 0 0 0 0 0 0 0 0 0 0 0 0 0 0 0 0 0 0 0 0 0 0 0 0 0 0 0 0 8 8 12 20 20 32 32 8 8 0 0 0 0 0 0 0 0 0 0 0 0 0 12 48 44 48 56 64
8 8 0 8 8 24 56 44 24 8 0 0 0 0 0 0 0 12 20 24 24 32 32 32 24 24 20 20 12 8 8 8 8 12 24 12 12 12 0 0 0 0 0 0 0 0 0 0 0 0 0 0 0 0 0 0 0 0 0 0 0 0 0 0 0 0 0 0 0 0 0 0 0 0 0 8 24 32 8 8 12 20 20 24 12 0 0 0 0 0 0 0 0 0 0 0 0 8 24 36 48 64 76
8 0 8 0 32 64 76 48 24 8 0 0 0 0 0 0 0 0 8 20 24 36 44 36 32 24 20 20 12 8 8 8 12 12 8 12 20 20 0 0 0 0 0 0 0 0 0 0 0 0 0 0 0 0 0 0 0 0 0 0 0 0 0 0 0 0 0 0 0 0 0 0 0 0 0 0 0 0 0 0 12 20 20 32 36 24 0 0 0 0 0 0 0 0 0 0 0 0 0 0 8 20 44
0 0 0 0 36 76 76 56 24 0 0 0 0 0 0 0 0 0 0 0 12 24 32 32 24 20 0 0 0 0 0 0 8 8 0 8 8 8 0 0 0 0 0 0 0 0 0 0 0 0 0 0 0 0 0 0 0 0 0 0 0 0 0 0 0 0 0 0 0 0 0 0 0 0 0 0 0 0 0 8 8 8 8 8 8 12 12 12 12 12 0 0 0 0 0 0 0 0 0 0 0 20 56
8 0 0 8 36 68 48 20 8 0 0 0 0 0 0 0 0 0 0 0 8 8 8 8 0 0 0 0 0 0 0 0 0 0 0 0 0 0 0 0 0 0 0 0 0 0 0 0 0 0 0 0 0 0 0 0 0 0 0 0 0 0 0 0 0 0 0 0 0 0 0 0 0 0 0 0 0 0 0 12 20 12 0 12 8 8 20 36 32 20 12 0 0 0 0 0 0 0 0 0 0 0 20
12 0 0 24 48 44 8 0 0 0 0 0 0 0 0 0 8 8 8 8 12 20 20 8 8 8 0 0 0 0 0 0 0 0 0 0 0 0 0 0 0 0 0 0 0 0 0 0 0 0 0 0 0 0 0 0 0 0 0 0 0 0 0 0 0 0 0 0 0 0 0 0 0 0 0 0 0 0 8 8 20 24 12 8 0 0 0 36 32 8 0 8 8 0 0 0 0 0 0 0 0 0 0
12 8 8 32 24 8 0 0 0 0 0 0 0 0 0 0 0 0 0 8 8 8 8 8 0 0 0 0 0 0 0 0 0 0 0 0 0 0 0 0 0 0 0 0 0 0 0 0 0 0 0 0 0 0 0 0 0 0 0 0 0 0 0 0 0 0 0 0 0 0 0 0 0 0 0 0 0 0 8 8 12 20 12 8 8 8 8 8 12 12 8 24 32 24 12 12 8 0 0 0 0 0 0
0 0 0 8 8 8 0 0 0 0 0 0 0 0 0 0 0 0 0 0 0 0 0 0 0 0 0 0 0 0 0 0 0 0 0 0 0 0 0 0 0 0 0 0 0 0 0 0 0 0 0 0 0 0 0 0 0 0 0 0 0 0 0 0 0 0 0 0 0 0 0 0 0 0 0 0 0 0 8 0 0 0 0 0 0 8 0 12 20 24 20 32 36 36 36 48 24 0 0 0 0 0 0
8 8 0 0 0 0 0 0 0 0 0 0 0 0 0 0 0 0 0 0 0 0 0 0 0 0 0 0 0 0 0 0 0 0 0 0 0 0 0 0 0 0 0 0 0 0 0 0 0 0 0 0 0 0 0 0 0 0 0 0 0 0 0 0 0 0 0 0 0 0 0 0 0 0 0 0 0 0 0 0 0 0 0 0 0 0 0 0 8 20 20 12 0 0 12 44 32 8 8 8 8 0 0
8 8 8 0 0 0 0 0 0 0 0 0 0 0 0 0 0 0 0 0 0 0 0 0 0 0 0 0 0 0 0 0 0 0 0 0 0 0 0 0 0 0 0 0 0 0 0 0 0 0 0 0 0 0 0 0 0 0 0 0 0 0 0 0 0 0 0 0 0 0 0 0 0 0 0 0 0 0 0 0 0 0 0 0 0 0 0 0 0 0 0 0 0 8 8 44 44 32 24 32 12 0 0
0 0 0 0 0 0 0 0 0 0 0 0 0 0 0 0 0 0 0 0 0 0 0 0 0 0 0 0 0 0 0 0 0 0 0 0 0 0 0 0 0 0 0 0 0 0 0 0 0 0 0 0 0 0 0 0 0 0 0 0 0 0 0 0 0 0 0 0 0 0 0 0 0 0 0 0 0 0 0 0 0 0 0 0 0 0 0 0 0 0 0 0 0 8 20 36 48 48 44 48 32 12 8
0 0 0 0 0 0 0 0 0 0 0 0 0 0 0 0 0 0 0 0 0 0 0 0 0 0 0 0 0 0 0 0 0 0 0 0 0 0 0 0 0 0 0 0 0 0 0 0 0 0 0 0 0 0 0 0 0 0 0 0 0 0 0 0 0 0 0 0 0 0 0 0 8 8 12 8 8 8 0 0 0 0 8 0 0 0 0 0 0 0 0 0 0 0 12 12 36 48 32 32 36 44 36
0 0 0 0 0 0 0 0 0 0 0 8 8 0 0 0 0 0 0 0 0 0 0 0 0 0 0 0 0 0 0 0 0 0 0 0 0 0 0 0 0 0 0 0 0 0 0 0 0 0 0 0 0 0 0 0 0 0 0 0 0 0 0 0 0 0 0 0 0 0 8 8 12 20 36 32 24 20 8 0 0 0 0 0 0 0 8 8 0 0 0 0 0 0 0 0 20 24 8 8 24 48 48
0 0 0 0 0 0 0 0 0 0 0 8 8 0 0 0 0 0 0 0 0 0 0 0 0 0 0 0 0 8 8 0 0 0 0 0 0 0 0 0 0 0 0 0 0 0 0 0 0 0 0 0 0 0 0 0 0 0 0 0 0 0 0 0 0 0 0 0 0 0 0 8 12 20 24 24 20 12 8 0 0 0 0 24 24 24 32 12 8 0 0 0 0 0 0 0 0 8 8 8 12 32 56
0 0 0 0 0 0 0 0 0 0 0 0 0 0 0 0 0 0 0 0 0 0 0 0 0 0 0 0 0 0 0 0 0 0 0 0 0 0 0 0 0 0 0 0 0 0 8 8 0 0 0 0 0 0 0 0 0 0 0 0 0 0 0 0 0 0 0 0 0 0 8 8 8 8 8 12 8 8 0 0 0 8 24 44 44 44 44 20 8 0 0 0 0 0 0 0 0 8 20 12 8 12 36
0 0 0 0 0 0 0 0 0 0 0 0 0 0 0 0 0 0 0 0 0 0 0 0 24 44 20 0 0 0 0 0 0 0 8 12 24 44 64 64 64 56 24 20 12 20 36 32 12 0 0 0 0 0 0 0 0 0 0 0 0 0 0 0 0 0 0 0 0 0 8 8 20 24 20 8 8 0 0 12 12 8 24 20 20 20 12 8 8 12 20 12 12 8 0 0 0 0 8 8 8 8 20
0 0 0 0 0 0 0 0 0 0 0 0 0 0 0 0 0 0 0 0 0 12 64 68 44 12 12 0 0 0 0 0 32 68 68 48 64 88 92 92 92 88 80 76 76 76 80 68 48 32 0 0 0 0 0 0 0 8 0 0 0 0 0 0 0 0 0 0 0 0 0 8 12 20 24 8 0 0 0 12 12 20 36 20 8 8 8 8 0 12 44 32 32 24 0 0 0 0 0 0 0 12 24
8 0 0 0 0 0 0 0 0 0 0 0 0 0 0 0 0 0 0 0 0 20 92 44 20 8 0 0 0 0 12 8 20 44 68 36 64 92 92 92 92 92 92 92 80 76 92 68 48 24 0 0 0 0 0 0 8 8 0 0 0 0 0 0 0 0 0 0 0 0 0 0 8 8 8 24 20 8 0 0 0 8 20 24 12 0 0 8 8 8 12 8 8 20 36 20 8 0 0 0 0 0 8
0 0 0 0 0 0 0 20 8 0 0 20 12 0 0 0 0 0 0 36 68 76 68 48 32 20 0 0 0 12 44 44 56 76 88 80 80 88 92 92 92 92 92 92 88 88 76 36 12 8 8 0 0 0 0 0 0 0 0 0 0 0 0 0 0 0 0 0 0 0 0 0 12 12 0 24 20 12 24 8 0 0 8 8 12 12 12 12 24 24 0 0 0 8 36 12 8 0 0 0 0 0 0
0 0 0 12 36 68 80 88 80 80 80 88 44 0 0 12 32 48 80 44 24 36 88 88 44 20 80 64 64 68 88 88 56 44 92 92 92 92 92 92 92 92 92 92 92 88 68 80 44 0 0 0 0 0 0 0 0 0 0 0 0 0 0 0 0 0 0 0 0 0 0 12 24 24 24 8 8 12 8 20 20 8 0 0 0 0 8 12 12 8 0 0 0 0 0 0 0 0 0 0 0 0 0
20 0 0 0 8 24 76 88 92 92 92 92 44 0 0 12 48 76 24 24 12 12 48 44 20 0 8 48 80 92 92 92 92 88 80 88 48 32 92 88 88 92 92 92 92 88 68 76 36 0 0 0 0 0 0 0 0 0 0 0 0 0 0 0 0 0 0 0 0 0 0 8 20 24 32 32 20 12 8 12 20 20 20 8 0 0 0 8 20 20 24 20 8 0 8 8 0 0 0 0 0 0 0
92 68 8 68 64 48 92 92 92 92 92 92 92 68 8 68 64 32 20 0 0 0 12 68 44 8 32 76 76 68 92 92 92 92 92 44 12 20 92 32 56 92 92 92 92 92 80 48 32 20 8 8 0 0 0 0 0 0 0 0 0 0 0 0 0 0 0 0 0 0 0 0 12 24 32 32 20 8 8 8 24 36 20 36 20 0 0 0 12 24 32 24 24 20 0 24 20 8 12 8 8 8 0
92 92 92 48 64 92 92 32 48 92 92 64 76 76 24 76 44 0 0 0 20 36 24 76 56 24 20 20 8 0 0 0 0 0 0 0 0 8 32 32 48 80 92 92 92 92 92 56 64 56 8 12 12 8 0 0 0 0 0 0 0 0 0 0 0 0 0 0 0 0 0 0 0 8 24 36 36 36 32 44 56 68 68 64 48 32 0 0 20 36 24 44 44 32 12 24 20 8 0 8 12 8 8
92 92 92 80 64 36 36 76 64 56 92 92 92 92 92 56 44 32 0 0 20 56 92 92 80 56 12 12 8 0 0 0 0 0 0 0 8 24 76 88 92 92 92 92 92 88 68 88 92 92 92 88 48 12 0 0 0 0 0 0 0 0 0 0 0 0 0 0 0 0 0 0 0 0 0 24 36 36 24 44 64 80 88 76 68 56 48 12 0 12 48 64 44 12 8 0 0 0 0 0 0 0 0
68 48 56 68 64 64 92 36 8 20 68 64 56 64 92 88 64 24 0 0 24 56 92 88 88 88 76 80 48 8 0 0 0 0 0 8 48 92 92 92 92 92 92 92 80 76 92 92 92 92 80 48 36 24 0 0 0 0 0 0 0 0 0 0 0 0 0 0 0 0 0 0 0 0 0 0 20 32 32 36 56 80 88 88 80 56 8 32 20 8 36 44 56 48 8 8 0 12 44 12 0 0 0
48 48 68 48 68 92 92 48 24 12 12 64 80 88 92 32 8 0 8 32 68 92 92 88 68 64 88 92 76 56 32 12 12 32 44 64 68 76 88 92 92 92 92 92 92 92 88 92 92 88 80 80 56 24 0 0 0 0 0 0 0 0 0 0 0 0 0 0 0 0 0 0 0 0 0 0 0 12 20 12 36 68 88 88 88 76 32 20 20 12 8 44 64 76 68 24 8 12 32 20 8 0 0
56 64 92 56 68 88 92 68 48 48 92 88 68 64 92 68 36 12 20 76 92 92 92 92 76 64 76 88 92 88 64 24 12 24 76 80 68 68 92 88 76 68 88 92 88 80 80 80 68 36 0 0 0 0 0 0 0 0 0 0 0 0 0 0 0 0 0 0 0 0 0 0 0 0 0 0 0 0 8 20 20 32 76 88 92 92 92 56 36 32 24 32 56 80 80 48 24 20 24 44 24 0 0
88 80 80 56 56 68 88 92 76 68 92 56 68 92 92 48 48 76 88 92 92 92 92 80 80 80 68 76 76 80 80 44 32 44 76 48 64 80 76 76 80 76 64 80 68 44 36 20 8 0 0 0 0 0 0 0 0 0 0 0 0 0 0 0 0 0 0 0 0 0 0 0 0 0 0 0 0 0 0 8 12 20 20 76 92 92 92 88 88 80 48 32 56 80 76 56 44 32 8 44 36 12 0
68 56 64 48 44 44 44 68 80 88 92 56 56 80 92 64 56 68 88 80 80 88 92 64 56 64 68 44 32 36 56 88 92 80 36 36 48 56 32 24 36 48 56 44 36 36 36 8 0 0 0 0 0 0 0 0 0 0 0 0 0 0 0 0 0 0 0 0 0 0 0 0 0 0 0 0 0 0 0 0 8 20 12 56 80 92 92 76 80 80 44 56 56 56 68 80 80 64 32 20 24 32 0
80 92 92 92 68 36 32 32 44 56 76 36 48 76 92 68 48 36 48 44 56 76 92 92 92 92 92 92 80 80 92 92 92 92 92 92 92 92 88 68 80 88 64 12 0 0 0 0 0 0 0 0 0 0 0 0 0 0 0 0 0 0 0 0 0 0 0 0 0 0 0 0 0 0 0 0 0 0 0 0 0 0 12 12 44 76 76 88 92 88 76 64 44 44 80 92 80 64 64 56 48 36 8
92 92 92 92 80 68 56 32 24 36 44 36 68 92 92 68 32 8 0 20 56 88 92 92 92 92 92 92 92 92 92 92 92 88 76 88 92 92 92 88 76 44 0 0 0 0 0 0 0 0 0 0 0 0 0 0 0 0 0 0 0 0 0 0 0 0 0 0 0 0 0 0 0 0 0 0 0 0 0 0 0 0 0 8 12 20 24 68 88 92 92 92 88 88 88 92 92 92 88 76 56 36 12
88 80 88 92 92 92 88 24 32 56 80 92 92 92 92 80 36 0 8 36 56 76 92 92 92 92 92 88 80 80 92 92 92 80 44 80 92 88 56 56 24 0 0 0 0 0 0 0 0 0 0 0 0 0 0 0 0 0 0 0 0 0 0 0 0 0 0 0 0 0 0 0 0 0 0 0 0 0 0 0 0 0 0 0 0 8 8 44 76 92 92 92 92 92 92 92 92 88 76 64 56 48 24
68 48 44 56 68 80 80 56 68 92 92 92 92 92 92 56 20 12 48 80 80 68 92 92 92 88 68 64 64 68 92 92 92 88 64 88 92 68 8 0 0 0 0 0 0 0 0 0 0 0 0 0 0 0 0 0 0 0 0 0 0 0 0 0 0 0 0 0 0 0 0 0 0 0 0 0 0 0 0 0 0 0 0 0 0 0 0 24 64 92 92 92 92 92 92 92 92 88 64 44 44 44 12
44 32 20 20 32 56 92 92 92 92 92 92 92 88 56 12 12 36 92 92 88 76 76 88 92 76 32 24 48 80 76 88 68 56 92 92 92 80 48 12 0 0 0 0 0 0 0 0 0 0 0 0 0 0 0 0 0 0 0 0 0 0 0 0 0 0 0 0 0 0 0 0 0 0 0 0 0 0 0 0 0 0 0 0 0 0 0 12 56 92 92 92 92 92 92 92 92 88 64 48 44 36 32
36 44 56 56 56 68 92 92 92 92 88 80 76 56 8 0 36 80 92 92 92 76 24 48 56 56 64 56 68 80 76 64 32 20 64 88 92 80 48 12 0 0 0 0 0 0 0 0 0 0 0 0 0 0 0 0 0 0 0 0 0 0 0 0 0 0 0 0 0 0 0 0 0 0 0 0 0 0 0 0 0 0 0 0 0 0 8 8 44 80 92 92 92 92 92 92 92 88 64 56 44 44 44
56 80 92 92 92 92 92 92 92 80 36 32 24 20 0 8 48 92 88 92 92 68 8 44 48 56 92 92 92 92 92 36 24 32 44 80 76 48 24 8 0 0 0 0 0 0 0 0 0 0 0 0 0 0 0 0 0 0 0 0 0 0 0 0 0 0 0 0 0 0 0 0 0 0 0 0 0 0 0 0 0 0 0 0 0 0 8 24 44 76 92 88 88 92 92 92 76 56 56 44 44 44 36
76 80 92 92 92 92 92 80 56 32 8 44 56 56 56 20 32 64 68 56 64 68 64 80 88 88 92 92 92 88 64 20 44 76 76 88 80 56 20 0 0 0 0 0 0 0 0 0 0 0 0 0 0 0 0 0 0 0 0 0 0 0 0 0 0 0 0 0 0 0 0 0 0 0 0 0 0 0 0 0 0 0 0 0 0 0 8 32 56 76 92 88 88 88 92 92 64 32 24 24 32 36 44
88 88 92 92 92 92 92 48 36 48 64 88 92 92 92 32 44 76 80 76 64 56 92 92 92 92 92 92 76 56 48 64 80 92 92 92 80 48 0 0 0 0 0 0 0 0 0 0 0 0 0 0 0 0 0 0 0 0 0 0 0 0 0 0 0 0 0 0 0 0 0 0 0 0 0 0 0 8 8 12 8 8 20 12 8 8 12 20 48 68 56 88 92 88 92 92 68 36 32 20 20 24 32
92 92 92 92 92 88 56 44 56 80 92 92 92 92 92 64 76 92 92 92 68 56 92 92 80 68 68 68 44 20 48 80 92 92 92 92 88 56 0 0 0 0 0 0 0 0 0 0 0 0 0 0 0 0 0 0 0 0 0 0 0 0 0 0 0 0 0 0 12 12 8 12 12 8 8 8 12 32 32 48 48 48 76 68 56 44 48 32 32 32 20 76 92 92 92 92 68 44 44 20 12 20 20
92 92 92 92 80 64 56 76 76 68 92 92 80 76 92 76 80 92 92 56 64 88 92 92 88 80 64 48 24 24 80 92 92 92 92 64 56 44 0 0 0 0 0 0 0 0 0 0 0 0 0 0 0 8 0 0 0 0 0 0 0 0 0 0 0 0 0 0 20 36 36 44 36 32 24 20 32 44 48 76 88 88 92 92 88 88 88 64 48 44 32 36 48 68 92 64 44 36 20 12 20 32 64
92 92 92 64 48 48 48 80 88 88 92 92 88 88 92 88 68 56 76 76 88 92 92 92 92 88 76 80 76 80 92 92 92 92 92 80 64 36 0 0 0 0 0 0 0 0 0 0 0 0 0 0 0 8 0 0 0 0 0 0 0 0 0 0 0 0 12 8 24 48 64 80 88 80 64 56 56 68 68 80 88 92 92 92 92 92 92 88 76 68 80 44 32 24 32 24 24 32 20 12 24 36 64
92 92 92 76 68 64 44 80 92 92 92 92 92 88 64 36 32 44 88 92 92 92 92 48 48 76 92 92 92 92 92 92 92 76 12 76 88 64 12 0 0 0 0 0 0 0 0 0 0 0 0 0 8 8 0 0 0 0 0 0 0 0 0 0 0 12 24 20 44 80 88 92 92 92 80 64 68 88 92 92 88 88 88 92 92 92 92 92 92 92 92 88 64 32 20 24 20 24 32 32 20 20 32
80 80 76 88 88 76 48 56 76 92 88 92 92 88 64 44 32 44 92 92 92 92 92 88 64 56 92 92 92 92 92 92 92 88 76 88 92 88 80 76 36 0 0 0 0 0 0 0 0 0 0 8 8 8 8 0 0 0 0 0 0 0 0 0 12 32 36 24 44 68 92 92 92 92 92 68 76 92 92 92 76 56 64 88 92 92 92 92 92 92 92 92 92 76 44 36 36 32 20 24 24 24 20
88 92 92 92 88 76 48 24 36 64 92 92 92 92 92 68 76 88 92 92 92 92 92 92 88 88 92 92 92 92 92 76 80 92 92 92 92 92 92 92 44 0 0 0 0 0 0 0 0 0 0 8 8 8 8 8 0 0 0 0 0 0 0 0 0 8 8 12 56 92 88 88 88 92 92 88 92 88 68 64 48 48 64 68 68 68 68 64 80 88 64 88 92 92 92 88 64 32 32 20 24 24 20
92 92 92 92 80 56 32 12 24 64 92 92 92 88 76 88 92 92 92 92 80 76 92 92 92 92 92 92 92 92 92 92 92 92 92 92 92 76 20 44 36 8 0 0 0 0 0 0 0 0 0 0 8 12 8 8 0 0 0 0 0 0 0 0 0 0 0 24 68 92 92 80 88 92 92 92 92 88 56 44 44 44 48 64 64 64 68 36 20 12 24 48 76 80 36 80 92 76 32 36 24 12 12
88 92 92 92 56 20 8 0 0 24 92 92 92 92 92 92 92 92 92 92 92 92 92 92 92 92 92 92 68 56 92 92 92 92 92 92 92 92 88 88 88 80 56 12 0 0 0 0 0 0 0 0 8 12 8 8 0 0 0 0 0 0 0 0 0 0 0 0 32 68 80 80 88 92 92 92 88 76 68 36 20 24 56 56 64 48 8 8 12 20 24 24 48 76 92 76 80 92 92 44 20 12 12
76 80 76 68 36 8 0 8 36 76 92 92 92 92 92 92 92 92 92 92 92 92 92 92 92 92 92 92 92 88 80 88 92 88 68 88 92 92 92 92 64 32 0 0 0 0 0 0 8 8 0 0 8 8 8 8 0 0 0 0 0 0 0 0 0 0 0 0 20 48 76 88 92 92 92 80 80 76 56 44 20 12 44 44 48 48 32 24 32 44 88 64 48 64 92 92 92 92 92 76 44 12 8
68 68 56 44 20 0 0 12 56 92 92 80 88 92 92 92 92 92 92 92 92 92 92 92 92 92 92 92 92 92 92 88 92 88 68 88 92 92 92 92 88 76 36 12 8 24 88 92 88 68 0 0 8 8 8 8 0 0 0 0 0 0 0 0 0 0 0 8 36 68 76 88 92 92 88 76 68 64 44 32 20 12 24 32 36 44 48 24 36 68 92 88 68 56 92 92 92 92 92 80 56 32 20
92 80 48 44 24 8 0 12 56 88 64 76 88 92 92 92 92 92 92 92 92 92 92 92 92 92 92 92 92 92 92 64 68 88 68 88 92 92 92 92 92 88 88 80 88 88 88 92 92 68 12 0 0 8 8 8 0 0 0 0 0 0 0 0 0 0 0 24 44 64 56 68 80 88 64 76 76 64 32 24 20 24 32 32 36 48 48 32 32 48 92 92 92 92 92 92 92 88 68 80 64 36 20
92 80 32 20 8 0 0 20 56 92 92 80 88 92 92 92 92 92 92 92 92 92 92 92 92 92 92 92 92 92 92 92 92 92 88 92 92 92 88 88 92 92 92 92 92 88 76 88 88 80 68 20 0 0 0 0 0 0 0 0 0 0 0 0 0 0 0 8 24 48 68 88 92 88 64 80 68 48 36 24 32 36 36 44 56 68 76 56 56 68 92 92 92 88 56 64 76 80 76 68 48 36 24
76 80 56 32 12 0 0 12 56 92 92 68 76 92 92 92 92 92 92 88 88 92 88 92 92 92 92 92 92 92 92 92 92 92 92 92 92 88 56 48 64 80 76 88 92 92 92 92 88 88 88 68 36 12 0 0 0 0 0 0 0 0 0 0 0 0 0 8 24 48 92 92 92 92 80 76 64 44 32 20 32 48 68 80 80 80 92 80 76 80 92 92 92 68 0 0 36 76 88 92 76 48 32
76 76 88 44 20 0 0 8 48 88 88 76 80 92 92 92 92 92 92 68 76 88 68 88 92 92 92 92 92 92 92 92 92 92 92 92 92 88 68 32 24 24 12 56 68 68 88 92 92 92 92 88 88 68 20 0 0 0 0 0 0 0 0 0 0 0 0 20 44 68 80 92 92 92 92 80 68 44 20 8 44 88 92 92 92 92 92 92 80 68 92 92 88 64 8 8 36 68 76 88 92 80 56
88 76 76 76 36 8 12 12 44 68 64 76 88 92 92 92 92 92 88 80 88 92 92 92 92 92 92 92 92 92 92 92 92 92 92 92 92 92 92 76 68 56 24 20 20 32 56 76 88 92 92 92 92 88 88 20 0 0 0 0 0 0 0 0 0 0 0 24 56 88 92 92 92 92 92 80 68 48 8 0 32 76 92 92 92 92 92 92 92 92 92 92 68 32 8 24 36 56 76 88 92 92 92